EW1882 Weather Reports


Display with metric or nautical units.
time (UTC)temp
F
wind
direction
speed
MPH
gust
MPH
rain 1hr
in
rain 24hr
in
rain mn
in
humidity
%
barometer
mb
20260506043010 43 266 4.0 16.0 0.00 0.03 0.03 57 1009.3
20260506041507 43 273 5.0 0.0 0.00 0.00 0.03 56 1009.0
20260506040005 43 271 2.0 21.0 0.00 0.03 0.03 57 1008.8
20260506034504 43 309 3.0 14.0 0.00 0.03 0.03 59 1008.5
20260506033004 43 300 5.0 15.0 0.00 0.03 0.03 62 1008.5
20260506031506 43 285 4.0 10.0 0.00 0.03 0.03 64 1008.3
20260506030002 43 345 2.0 11.0 0.00 0.03 0.03 63 1008.3
20260506024601 43 318 2.0 12.0 0.00 0.03 0.03 63 1008.0
20260506024504 43 286 3.0 12.0 0.00 0.03 0.03 63 1008.0
20260506023100 43 328 3.0 14.0 0.00 0.03 0.03 63 1007.8
20260506021608 43 227 3.0 11.0 0.00 0.03 0.03 62 1007.7
20260506020058 43 291 4.0 19.0 0.00 0.03 0.03 64 1007.5
20260506014612 44 217 4.0 19.0 0.00 0.03 0.03 63 1007.3
20260506013057 44 283 6.0 14.0 0.00 0.03 0.03 64 1007.0
20260506011556 44 261 5.0 15.0 0.00 0.03 0.03 64 1007.0
20260506010104 44 269 4.0 13.0 0.00 0.03 0.03 64 1006.6
20260506004555 44 276 3.0 19.0 0.00 0.03 0.03 65 1006.5
20260506003054 44 288 8.0 20.0 0.00 0.03 0.03 65 1006.3
20260506001600 44 276 8.0 23.0 0.00 0.03 0.03 68 1006.3
20260506000059 44 262 5.0 15.0 0.00 0.03 0.03 70 1006.2
20260505234551 44 309 4.0 19.0 0.00 0.03 0.03 71 1006.1
20260505233101 44 255 5.0 20.0 0.00 0.03 0.03 74 1006.1
20260505231552 44 291 8.0 17.0 0.00 0.03 0.03 73 1006.1
20260505230051 44 332 6.0 20.0 0.00 0.03 0.03 74 1006.0
20260505224549 43 325 7.0 14.0 0.00 0.03 0.03 76 1006.2
20260505223050 42 290 4.0 17.0 0.00 0.03 0.03 79 1006.2
20260505221547 42 299 8.0 22.0 0.00 0.03 0.03 81 1006.2
20260505220046 41 338 5.0 16.0 0.00 0.03 0.03 82 1006.5
20260505214545 41 297 5.0 12.0 0.00 0.03 0.03 84 1006.6
20260505213047 41 262 6.0 26.0 0.00 0.03 0.03 86 1006.6
20260505211545 41 229 4.0 15.0 0.00 0.03 0.03 90 1006.7
20260505210042 40 249 5.0 24.0 0.00 0.03 0.03 91 1007.0
20260505204542 39 302 4.0 13.0 0.00 0.03 0.03 92 1007.1
20260505203048 39 301 3.0 10.0 0.01 0.03 0.03 93 1007.1
20260505201542 38 268 3.0 12.0 0.02 0.03 0.03 92 1007.3
20260505200039 38 311 2.0 14.0 0.03 0.03 0.03 91 1007.1
20260505194637 38 330 4.0 14.0 0.03 0.03 0.03 91 1007.0
20260505193049 39 322 5.0 20.0 0.02 0.02 0.02 89 1006.9
20260505191536 39 340 5.0 20.0 0.01 0.01 0.01 86 1006.7
20260505190036 39 346 4.0 13.0 0.00 0.00 0.00 83 1006.6
20260505184527 41 326 8.0 16.0 0.00 0.00 0.00 74 1006.8
20260505183023 41 312 5.0 11.0 0.00 0.00 0.00 70 1006.8
20260505181520 41 325 5.0 21.0 0.00 0.00 0.00 68 1006.8
20260505180022 42 323 2.0 15.0 0.00 0.00 0.00 66 1007.0
20260505174516 43 293 6.0 20.0 0.00 0.00 0.00 66 1006.9
20260505173015 43 331 7.0 16.0 0.00 0.00 0.00 64 1007.0
20260505171514 42 348 6.0 13.0 0.00 0.00 0.00 62 1006.7
20260505170016 42 338 4.0 11.0 0.00 0.00 0.00 63 1006.9
20260505164512 42 314 6.0 10.0 0.00 0.00 0.00 62 1006.8
20260505163012 42 340 6.0 15.0 0.00 0.00 0.00 60 1006.7
20260505161513 42 352 5.0 12.0 0.00 0.00 0.00 59 1007.0
20260505153009 41 292 2.0 11.0 0.00 0.00 0.00 61 1006.9
20260505151507 42 293 6.0 14.0 0.00 0.00 0.00 63 1006.6
20260505124557 42 304 4.0 10.0 0.00 0.00 0.00 61 1006.4
20260505123104 42 339 5.0 10.0 0.00 0.00 0.00 61 1006.5
20260505121549 42 311 3.0 13.0 0.00 0.00 0.00 61 1006.5
20260505120055 42 290 6.0 15.0 0.00 0.00 0.00 61 1006.1
20260505114549 42 302 4.0 9.0 0.00 0.00 0.00 60 1006.3
20260505113050 42 309 4.0 14.0 0.00 0.00 0.00 60 1006.3
20260505111541 42 311 4.0 8.0 0.00 0.00 0.00 60 1006.3
20260505101535 44 339 6.0 12.0 0.00 0.00 0.00 57 1006.4
20260505100032 44 340 5.0 15.0 0.00 0.00 0.00 56 1006.4
20260505094526 44 356 5.0 14.0 0.00 0.00 0.00 54 1006.7
20260505093024 45 318 6.0 12.0 0.00 0.00 0.00 53 1007.2
20260505091622 45 338 5.0 13.0 0.00 0.00 0.00 51 1007.6
20260505090019 45 323 5.0 14.0 0.00 0.00 0.00 50 1007.5
20260505084519 45 345 4.0 12.0 0.00 0.00 0.00 49 1007.8
20260505083023 45 312 4.0 12.0 0.00 0.00 0.00 49 1007.6
20260505081515 46 300 6.0 12.0 0.00 0.00 0.00 49 1007.9
20260505080019 45 327 7.0 13.0 0.00 0.00 0.00 50 1008.2
20260505074510 45 341 4.0 12.0 0.00 0.00 0.00 50 1008.0
20260505073022 45 255 4.0 8.0 0.00 0.00 0.00 50 1007.7
20260505071507 46 311 4.0 10.0 0.00 0.00 0.00 50 1008.1
20260505070006 46 301 4.0 16.0 0.00 0.00 0.00 49 1007.8
20260505064503 46 336 6.0 10.0 0.00 0.00 0.00 50 1007.9
20260505063101 46 290 4.0 10.0 0.00 0.00 0.00 48 1008.3
20260505061600 46 307 3.0 10.0 0.00 0.00 0.00 46 1008.2
20260505060100 46 314 4.0 9.0 0.00 0.00 0.00 42 1008.3
20260505054653 47 352 4.0 12.0 0.00 0.00 0.00 41 1008.2
20260505053051 47 318 2.0 10.0 0.00 0.00 0.00 40 1008.2
20260505051551 48 326 5.0 15.0 0.00 0.00 0.00 39 1008.4